Voltar ao catálogo

OPS 4682 DEB

AtivoPO
NORAD 38430·DEBRIS·🇺🇸 United States

Lançado Apr 3, 1965 de Vandenberg Space Force Base

Loading…

Próximas Passagens (próximas 24 horas)

TLE

AtualizadoSource: Space-Track

Época: Sep 12, 2026, 01:27 UTC

1 38430U 65027EK  26255.06107645  .00000685  00000-0  22276-2 0  9997
2 38430  90.2743  24.7201 0054060 116.7130 243.9540 13.00238776674983

Acompanhe OPS 4682 DEB em tempo real com AllMySat

Download on the App Store